TOURFACTS.DK  
Stats and Facts from Tour de France.

Tour de France 2019 starts in 320 days
  Riders   Stages   Teams   Summits   Yearly  


 
Search by year

After 2018 - Stage 21:
 15000 starters.
  5165 different riders.
  638 teams.
  2253 stages.
  456 restdays.
  442940.60 km.
  5684 abandonnees.


Top 3
GC
Geraint Thomas83:17:13
Tom Dumoulin83:19:04
Christopher Froome83:19:37
Climb
Julian Alaphilippe170 pt.
Warren Barguil91 pt.
Rafal Majka76 pt.
Sprint
Peter Sagan477 pt.
Alexander Kristoff246 pt.
Arnaud Démare203 pt.
Youth
Pierre-Roger Latou..83:39:26
Egan Bernal83:45:05
Guillaume Martin84:01:31
Facts from Tour de France 2016
  |   Stages.  |   Stage winners.  |   Days in yellow  |   Average speed.  |   Route.  |   Teams.  |   All riders.  |   Rookies.  |  

  |   Withdrawls.  |   GC.  |   Polka  |   Green  |   White  |   Summits. (In tour)  |   Miscellaneous.  |  

Stage 18 on 21 - 07 - 2016
         Owning:    Christopher Froome      Rafal Majka      Peter Sagan      Adam Yates  

Pick a stage:  1 2 3 4 5 6 7 8 9 10 11 12 13 14 15 16 17 18 19 20 21
  SallanchesMegève | Dist: 17.00 km.

Average speed for all riders in stage:  29,584 km./hr.
    Place:Name:Team:Time:Km/h:
1
KENChristopher FroomeGBRSky Procycling00:30:43  +  00:00:00=33,207 
2
NEDTom DumoulinDEUTeam Giant Alpecin00:31:04  +  00:00:21=32,833 
3
ITAFabio AruKAZAstana Pro Team00:31:16  +  00:00:33=32,623 
44 AUSRichie PorteUSABMC Racing Team00:31:16  +  00:00:33=32,623 
55 FRARomain BardetFRAAg2r La Mondiale00:31:25  +  00:00:42=32,467 
66 BELThomas De GendtBELLotto Soudal00:31:45  +  00:01:02=32,126 
77 ESPJon Izaguirre InsaustiESPMovistar Team00:31:46  +  00:01:03=32,109 
88 ESPJoaquim RodriguezRUSTeam Katusha00:31:48  +  00:01:05=32,075 
99 RSALouis MeintjesITALampre-Merida00:31:51  +  00:01:08=32,025 
1010 COLNairo QuintanaESPMovistar Team00:31:53  +  00:01:10=31,992 
1111 FRAJérôme CoppelCHEIAM Cycling00:31:58  +  00:01:15=31,908 
1212 ESPAlejandro ValverdeESPMovistar Team00:32:01  +  00:01:18=31,858 
1313 CZERoman KreuzigerRUSTinkoff00:32:03  +  00:01:20=31,825 
1414 NEDStef ClementCHEIAM Cycling00:32:05  +  00:01:22=31,792 
1515 ITAVincenzo NibaliKAZAstana Pro Team00:32:06  +  00:01:23=31,776 
1616 ENGAdam YatesAUSORICA BikeExchange00:32:06  +  00:01:23=31,776 
1717 NEDBauke MollemaUSATrek - Segafredo00:32:08  +  00:01:25=31,743 
1818 ENGDaniel MartinBELEtixx - Quick Step00:32:11  +  00:01:28=31,693 
1919 FRARomain SicardFRADirect Energie00:32:21  +  00:01:38=31,530 
2020 FRASylvain ChavanelFRADirect Energie00:32:27  +  00:01:44=31,433 
2121 PORNelson OliveiraESPMovistar Team00:32:29  +  00:01:46=31,401 
2222 FRANicolas EdetFRACofidis – Solutions Crédits00:32:37  +  00:01:54=31,272 
2323 WALGeraint ThomasGBRSky Procycling00:32:52  +  00:02:09=31,034 
2424 KAZAlexey LutsenkoKAZAstana Pro Team00:32:55  +  00:02:12=30,987 
2525 ITADamiano CarusoUSABMC Racing Team00:32:56  +  00:02:13=30,972 
2626 CZEJan BártaDEUBora-Argon 1800:32:58  +  00:02:15=30,940 
2727 FRATony GallopinBELLotto Soudal00:33:01  +  00:02:18=30,893 
2828 FRAJulian AlaphilippeBELEtixx - Quick Step00:33:03  +  00:02:20=30,862 
2929 SUISébastien ReichenbachFRAFDJ00:33:04  +  00:02:21=30,847 
3030 DENMichael ValgrenRUSTinkoff00:33:05  +  00:02:22=30,831 
3131 FRA Alexis GougeardFRAAg2r La Mondiale00:33:06  +  00:02:23=30,816 
3232 FRAArnold JeannessonFRACofidis – Solutions Crédits00:33:07  +  00:02:24=30,800 
3333 ESPMikel NieveGBRSky Procycling00:33:08  +  00:02:25=30,785 
3434 FRAPierre RollandUSATeam Cannondale Drapac00:33:10  +  00:02:27=30,754 
3535 ESPMikel Landa MeanaGBRSky Procycling00:33:11  +  00:02:28=30,738 
3636 ITADiego RosaKAZAstana Pro Team00:33:11  +  00:02:28=30,738 
3737 RSADaryl ImpeyAUSORICA BikeExchange00:33:12  +  00:02:29=30,723 
3838 RUSIlnur ZakarinRUSTeam Katusha00:33:18  +  00:02:35=30,631 
3939 SUIJakob FuglsangKAZAstana Pro Team00:33:20  +  00:02:37=30,600 
4040 ERIDaniel TeklehaimanotZAFDimension Data00:33:21  +  00:02:38=30,585 
4141 ARGEduardo SepulvedaFRAFortuneo - Vital Concept00:33:23  +  00:02:40=30,554 
4242 GEREmanuel BuchmannDEUBora-Argon 1800:33:26  +  00:02:43=30,508 
4343 URSTanel KangertKAZAstana Pro Team00:33:27  +  00:02:44=30,493 
4444 ESPHaimar ZubeldiaUSATrek - Segafredo00:33:27  +  00:02:44=30,493 
4545 LUXBen GastauerFRAAg2r La Mondiale00:33:31  +  00:02:48=30,433 
4646 FRAWarren BarguilDEUTeam Giant Alpecin00:33:32  +  00:02:49=30,417 
4747 COLSergio Luis HenaoGBRSky Procycling00:33:33  +  00:02:50=30,402 
4848 FRAAnthony DelaplaceFRAFortuneo - Vital Concept00:33:37  +  00:02:54=30,342 
4949 GERSimon GeschkeDEUTeam Giant Alpecin00:33:39  +  00:02:56=30,312 
5050 FRABrice FeilluFRAFortuneo - Vital Concept00:33:39  +  00:02:56=30,312 
5151 NEDTom-Jelte SlagterUSATeam Cannondale Drapac00:33:42  +  00:02:59=30,267 
5252 FRAAlexis VuillermozFRAAg2r La Mondiale00:33:45  +  00:03:02=30,222 
5353 FRAPierre-Luc PérichonFRAFortuneo - Vital Concept00:33:46  +  00:03:03=30,207 
5454 URSRamunas NavardauskasUSATeam Cannondale Drapac00:33:46  +  00:03:03=30,207 
5555 NOREdvald Boasson HagenZAFDimension Data00:33:47  +  00:03:04=30,192 
5656 NEDWout PoelsGBRSky Procycling00:33:50  +  00:03:07=30,148 
5757 SUIMartin ElmigerCHEIAM Cycling00:33:54  +  00:03:11=30,088 
5858 ESPLuis León SánchezKAZAstana Pro Team00:33:57  +  00:03:14=30,044 
5959 FRAJérémy RoyFRAFDJ00:33:58  +  00:03:15=30,029 
6060 SUIReto HollensteinCHEIAM Cycling00:33:58  +  00:03:15=30,029 
6161 SLOJan PolancITALampre-Merida00:33:59  +  00:03:16=30,015 
6262 AUTGeorg PreidlerDEUTeam Giant Alpecin00:33:59  +  00:03:16=30,015 
6363 COLJarlinson Pantano GomezCHEIAM Cycling00:34:00  +  00:03:17=30,000 
6464 SUIMichael SchärUSABMC Racing Team00:34:01  +  00:03:18=29,985 
6565 SUIMichael AlbasiniAUSORICA BikeExchange00:34:04  +  00:03:21=29,941 
6666 IRLChristopher Juul JensenAUSORICA BikeExchange00:34:04  +  00:03:21=29,941 
6767 POLMaciej BodnarRUSTinkoff00:34:06  +  00:03:23=29,912 
6868 ITADomenico PozzovivoFRAAg2r La Mondiale00:34:06  +  00:03:23=29,912 
6969 SUISteve MorabitoFRAFDJ00:34:07  +  00:03:24=29,897 
7070 ITAPaolo TiralongoKAZAstana Pro Team00:34:10  +  00:03:27=29,854 
7171 FRAAmaël MoinardUSABMC Racing Team00:34:11  +  00:03:28=29,839 
7272 FRABryan CoquardFRADirect Energie00:34:11  +  00:03:28=29,839 
7373 ESPRubén PlazaAUSORICA BikeExchange00:34:12  +  00:03:29=29,825 
7474 FRAThomas VoecklerFRADirect Energie00:34:12  +  00:03:29=29,825 
7575 GERTony MartinBELEtixx - Quick Step00:34:15  +  00:03:32=29,781 
7676 NEDWilco KeldermanNLDTeam Lotto NL - Jumbo00:34:15  +  00:03:32=29,781 
7777 BELOliver NaesenCHEIAM Cycling00:34:16  +  00:03:33=29,767 
7878 NEDLaurens ten DamDEUTeam Giant Alpecin00:34:17  +  00:03:34=29,752 
7979 FRAFabrice JeandesbozFRADirect Energie00:34:17  +  00:03:34=29,752 
8080 ESPImanol ErvitiESPMovistar Team00:34:18  +  00:03:35=29,738 
8181 FRACyril GautierFRAAg2r La Mondiale00:34:18  +  00:03:35=29,738 
8282 POLRafal MajkaRUSTinkoff00:34:20  +  00:03:37=29,709 
8383 GERPaul MartensNLDTeam Lotto NL - Jumbo00:34:21  +  00:03:38=29,694 
8484 NEDAlbert TimmerDEUTeam Giant Alpecin00:34:21  +  00:03:38=29,694 
8585 AUSLuke DurbridgeAUSORICA BikeExchange00:34:22  +  00:03:39=29,680 
8686 NEDDylan Van BaarleUSATeam Cannondale Drapac00:34:22  +  00:03:39=29,680 
8787 FRAArthur VichotFRAFDJ00:34:24  +  00:03:41=29,651 
8888 LUXFränk SchleckUSATrek - Segafredo00:34:24  +  00:03:41=29,651 
8989 BELJan BakelantsFRAAg2r La Mondiale00:34:27  +  00:03:44=29,608 
9090 SVKPeter SaganRUSTinkoff00:34:28  +  00:03:45=29,594 
9191 AUSMichael MatthewsAUSORICA BikeExchange00:34:29  +  00:03:46=29,580 
9292 BELSerge PauwelsZAFDimension Data00:34:31  +  00:03:48=29,551 
9393 CANAntoine DuchesneFRADirect Energie00:34:31  +  00:03:48=29,551 
9494 AUTPatrick KonradDEUBora-Argon 1800:34:32  +  00:03:49=29,537 
9595 NORVegard BreenFRAFortuneo - Vital Concept00:34:33  +  00:03:50=29,522 
9696 NZLGeorge BennettNLDTeam Lotto NL - Jumbo00:34:37  +  00:03:54=29,466 
9797 BELGreg Van AvermaetUSABMC Racing Team00:34:39  +  00:03:56=29,437 
9898 HRVKristijan DurasekITALampre-Merida00:34:42  +  00:03:59=29,395 
9999 GERPaul VossDEUBora-Argon 1800:34:42  +  00:03:59=29,395 
100100 ITACesare BenedettiDEUBora-Argon 1800:34:43  +  00:04:00=29,381 
101101 FRAFlorian VachonFRAFortuneo - Vital Concept00:34:47  +  00:04:04=29,324 
102102 USAPeter StetinaUSATrek - Segafredo00:34:49  +  00:04:06=29,296 
103103 FRAAnthony RouxFRAFDJ00:34:50  +  00:04:07=29,282 
104104 ETHTsgabu Gebremaryan GrmayITALampre-Merida00:34:52  +  00:04:09=29,254 
105105 ESPAlberto LosadaRUSTeam Katusha00:34:53  +  00:04:10=29,240 
106106 NEDBert-Jan LindemanNLDTeam Lotto NL - Jumbo00:34:56  +  00:04:13=29,198 
107107 USABrent BookwalterUSABMC Racing Team00:34:57  +  00:04:14=29,185 
108108 POLBartosz HuzarskiDEUBora-Argon 1800:35:01  +  00:04:18=29,129 
109109 BELJürgen RoelandtsBELLotto Soudal00:35:01  +  00:04:18=29,129 
110110 BELSep VanmarckeNLDTeam Lotto NL - Jumbo00:35:01  +  00:04:18=29,129 
111111 FRAJérôme CousinFRACofidis – Solutions Crédits00:35:02  +  00:04:19=29,115 
112112 NEDTimo RoosenNLDTeam Lotto NL - Jumbo00:35:04  +  00:04:21=29,087 
113113 COLWinner AnaconaESPMovistar Team00:35:05  +  00:04:22=29,074 
114114 AUSAdam HansenBELLotto Soudal00:35:06  +  00:04:23=29,060 
115115 GERMarcus BurghardtUSABMC Racing Team00:35:13  +  00:04:30=28,964 
116116 FRASamuel DumoulinFRAAg2r La Mondiale00:35:14  +  00:04:31=28,950 
117117 ITAOscar GattoRUSTinkoff00:35:14  +  00:04:31=28,950 
118118 GERMarcel KittelBELEtixx - Quick Step00:35:14  +  00:04:31=28,950 
119119 USALawson CraddockUSATeam Cannondale Drapac00:35:15  +  00:04:32=28,936 
120120 FRAGeoffrey SoupeFRACofidis – Solutions Crédits00:35:16  +  00:04:33=28,922 
121121 ENGStephen CummingsZAFDimension Data00:35:16  +  00:04:33=28,922 
122122 ESPÁngel ViciosoRUSTeam Katusha00:35:17  +  00:04:34=28,909 
123123 AUSLeigh HowardCHEIAM Cycling00:35:20  +  00:04:37=28,868 
124124 NORAlexander KristoffRUSTeam Katusha00:35:25  +  00:04:42=28,800 
125125 CZEPetr VakocBELEtixx - Quick Step00:35:28  +  00:04:45=28,759 
126126 FRAYohann GèneFRADirect Energie00:35:28  +  00:04:45=28,759 
127127 WALLuke RoweGBRSky Procycling00:35:28  +  00:04:45=28,759 
128128 FRAAdrien PetitFRADirect Energie00:35:28  +  00:04:45=28,759 
129129 BELJasper StuyvenUSATrek - Segafredo00:35:30  +  00:04:47=28,732 
130130 FRAChristophe LaporteFRACofidis – Solutions Crédits00:35:31  +  00:04:48=28,719 
131131 NORSondre Holst EngerCHEIAM Cycling00:35:32  +  00:04:49=28,705 
132132 USATejay Van GarderenUSABMC Racing Team00:35:34  +  00:04:51=28,679 
133133 FRAWilliam BonnetFRAFDJ00:35:36  +  00:04:53=28,652 
134134 BELIljo KeisseBELEtixx - Quick Step00:35:37  +  00:04:54=28,638 
135135 BRAMaximilano RichezeBELEtixx - Quick Step00:35:39  +  00:04:56=28,612 
136136 PORRui CostaITALampre-Merida00:35:40  +  00:04:57=28,598 
137137 AUSMathew HaymanAUSORICA BikeExchange00:35:41  +  00:04:58=28,585 
138138 FRACyril LemoineFRACofidis – Solutions Crédits00:35:41  +  00:04:58=28,585 
139139 SLOLuka PibernikITALampre-Merida00:35:43  +  00:05:00=28,558 
140140 ESPLuis Angel MateFRACofidis – Solutions Crédits00:35:43  +  00:05:00=28,558 
141141 JPNYukiya ArashiroITALampre-Merida00:35:44  +  00:05:01=28,545 
142142 ESPDaniel MorenoESPMovistar Team00:35:47  +  00:05:04=28,505 
143143 BLRVasil KiryienkaGBRSky Procycling00:35:51  +  00:05:08=28,452 
144144 HRVRobert KiserlovskiRUSTinkoff00:35:54  +  00:05:11=28,412 
145145 ITAFabio SabatiniBELEtixx - Quick Step00:35:56  +  00:05:13=28,386 
146146 ITAMatteo TosattoRUSTinkoff00:35:57  +  00:05:14=28,373 
147147 GERRobert WagnerNLDTeam Lotto NL - Jumbo00:35:57  +  00:05:14=28,373 
148148 SUIGregory RastUSATrek - Segafredo00:36:03  +  00:05:20=28,294 
149149 DENChris Anker SørensenFRAFortuneo - Vital Concept00:36:03  +  00:05:20=28,294 
150150 GERJohn DegenkolbDEUTeam Giant Alpecin00:36:05  +  00:05:22=28,268 
151151 UKRAndriy GrivkoKAZAstana Pro Team00:36:06  +  00:05:23=28,255 
152152 RSAReinardt Janse Van RensburgZAFDimension Data00:36:06  +  00:05:23=28,255 
153153 SLOKristjan KorenUSATeam Cannondale Drapac00:36:06  +  00:05:23=28,255 
154154 NZLGregory HendersonBELLotto Soudal00:36:06  +  00:05:23=28,255 
155155 ERINatnael Teweldemedhin BerhaneZAFDimension Data00:36:11  +  00:05:28=28,190 
156156 GERAndré GreipelBELLotto Soudal00:36:12  +  00:05:29=28,177 
157157 NEDRoy CurversDEUTeam Giant Alpecin00:36:13  +  00:05:30=28,164 
158158 FRAMickaël CherelFRAAg2r La Mondiale00:36:13  +  00:05:30=28,164 
159159 ESPMarkel IrizarUSATrek - Segafredo00:36:14  +  00:05:31=28,151 
160160 BELJulien VermoteBELEtixx - Quick Step00:36:18  +  00:05:35=28,099 
161161 ENGIan StannardGBRSky Procycling00:36:19  +  00:05:36=28,086 
162162 GERAndreas SchillingerDEUBora-Argon 1800:36:24  +  00:05:41=28,022 
163163 USAAlex HowesUSATeam Cannondale Drapac00:36:25  +  00:05:42=28,009 
164164 NEDRamon SinkeldamDEUTeam Giant Alpecin00:36:27  +  00:05:44=27,984 
165165 ITAJacopo GuarnieriRUSTeam Katusha00:36:30  +  00:05:47=27,945 
166166 NEDDylan GroenewegenNLDTeam Lotto NL - Jumbo00:36:32  +  00:05:49=27,920 
167167 BELMaarten WynantsNLDTeam Lotto NL - Jumbo00:36:33  +  00:05:50=27,907 
168168 ITAMatteo BonoITALampre-Merida00:36:33  +  00:05:50=27,907 
169169 GERMarcel SiebergBELLotto Soudal00:36:35  +  00:05:52=27,882 
170170 DENLars BakBELLotto Soudal00:36:37  +  00:05:54=27,856 
171171 BELSam BennettDEUBora-Argon 1800:36:47  +  00:06:04=27,730 
172172 ITADavide CimolaiITALampre-Merida00:36:59  +  00:06:16=27,580 
173173 AUTMarco HallerRUSTeam Katusha00:37:02  +  00:06:19=27,543 
174174 ENGDaniel McLayFRAFortuneo - Vital Concept00:37:22  +  00:06:39=27,297 
175175 ESPDaniel NavarroFRACofidis – Solutions Crédits00:37:27  +  00:06:44=27,236 
176176 FRAArmindo FonsecaFRAFortuneo - Vital Concept00:37:46  +  00:07:03=27,008 
177177 AUTBernhard EiselZAFDimension Data00:38:05  +  00:07:22=26,783 

Withdrawls: 2
 
Rider
Team
Reason
62  SUIFabian CancellaraUSATrek - SegafredoDid not start
132  NZLShane ArchboldDEUBora-Argon 18Did not start
Todays birthdays.

1878  Jean Novo
1883  Jules Chabas
1890  Ange Aubry
1893  Roger Marye
1913  Paul Maye
1914  Lucien Vlaemynck
1915  Alphonse Antoine
1932  Rolf Graf
1953  Julio Rubiano
1959  Jos Haex
1959  Gerard Veldscholten
1963  Pablo Moreno
1964  Juan Castillo
1977  Iban Mayo
1994  Fernando Gaviria